User: anonymous   Login
Location: Bridgewater Hill Observatory
(43.5992°N, 72.6989°W)
Time: 05:44:37
(UTC-05:00)
Language:

Cosmos 1452 Rocket - Orbit

View from above orbital plane
View from above orbital plane
View from above satellite
View from above satellite

Ground track
Ground track

The orbit data is extracted from the following two-line orbital elements,

1 13992U 83031B   17015.24566781  .00000035  00000-0  21094-4 0  9990
2 13992  74.0544 287.6478 0006030 299.2445 175.8227 14.36070567766859
Epoch (UTC): 15 January 2017 05:53:45
Eccentricity: 0.0006030
inclination: 74.0544°
perigee height: 767 km
apogee height: 776 km
right ascension of ascending node: 287.6478°
argument of perigee: 299.2445°
revolutions per day: 14.36070567
mean anomaly at epoch: 175.8227°
orbit number at epoch: 76685

The dashed part of the orbit path shows where the satellite is in the earth's shadow,  

DLR